Theta_e
342 341 341 348 356 350 349 342 336 338 341 341 341 339 334 332 335 336 333 334 336 337 336 338 341 342 342 342 342 342 342 343 345 346 346 344 343 342 342 341 341 341 340
352 357 358 359 346 340 338 335 334 338 340 342 330 337 333 335 334 333 332 333 332 332 331 333 335 339 341 342 343 342 342 342 343 343 345 345 344 343 343 342 341 341 339
342 349 351 347 344 344 338 338 348 346 345 344 343 338 338 339 339 336 335 334 333 333 331 332 334 338 340 339 341 343 343 344 344 344 343 343 344 344 342 341 340 339 340
346 346 348 346 341 336 336 338 343 342 344 342 337 343 342 343 341 340 339 336 330 330 332 331 334 340 340 341 343 343 343 343 343 343 343 345 343 343 342 341 340 339 339
340 340 338 337 339 339 337 339 344 343 343 334 330 333 335 340 341 343 339 337 332 329 331 333 336 339 335 339 339 340 340 341 341 340 341 341 342 341 341 341 339 337 337
339 337 339 341 341 341 341 343 339 342 343 342 339 333 335 342 344 343 341 338 335 331 327 332 335 339 337 338 338 335 335 336 337 338 339 338 339 338 338 336 335 334 336
335 336 337 338 337 338 340 339 339 339 340 340 341 342 341 342 341 340 339 335 336 335 330 334 333 338 337 336 334 335 335 336 335 336 336 335 334 333 334 335 334 337 333
330 328 328 329 333 333 333 332 332 332 331 331 331 331 333 335 336 335 333 335 337 332 332 334 334 337 336 334 335 335 335 336 335 334 333 334 334 335 334 335 335 334 332
336 335 334 333 335 334 333 333 331 331 332 332 330 330 331 332 332 334 335 337 335 330 333 333 334 336 335 335 335 334 335 333 334 333 333 333 334 334 333 332 331 331 327
333 334 335 334 333 335 334 332 331 331 332 332 331 332 333 332 331 332 333 336 328 331 332 333 336 334 335 335 333 334 334 333 333 333 332 332 332 333 334 334 333 330 329
332 331 334 333 333 332 331 330 332 332 332 332 333 333 333 332 332 333 334 334 331 328 333 334 335 334 333 335 334 333 333 332 334 333 332 330 333 333 333 332 331 330 330
330 333 331 331 331 330 332 331 332 333 333 333 333 332 332 332 333 334 334 335 330 332 334 333 334 333 333 334 334 334 333 331 332 332 332 333 331 332 330 329 330 329 329
327 330 331 332 331 329 330 332 333 333 334 333 333 333 331 333 333 334 332 332 333 334 334 334 334 333 333 332 331 332 332 332 329 331 332 332 332 331 331 329 328 328 329
330 330 331 331 330 329 332 332 333 333 333 334 333 334 332 332 332 332 332 333 334 334 335 334 333 333 333 332 332 332 332 332 331 331 330 330 331 332 331 330 329 329 329
330 329 328 328 329 331 332 331 332 333 333 334 333 333 333 331 332 333 333 334 334 334 333 335 334 333 333 332 332 330 331 332 332 331 331 330 331 331 332 331 331 331 331
326 328 330 331 332 332 331 330 329 328 331 332 333 332 331 331 331 331 333 334 333 334 334 333 335 333 332 333 331 331 331 331 332 331 331 330 330 330 331 331 333 332 331
329 329 328 328 329 332 332 331 331 330 332 331 331 332 330 330 332 333 333 334 333 334 334 333 334 334 333 334 332 332 331 332 332 332 331 331 330 330 329 329 329 330 329
326 326 326 327 330 329 331 332 330 329 331 333 331 332 331 331 332 332 333 334 333 334 333 334 333 333 334 333 333 333 332 332 332 332 331 331 331 329 328 329 328 328 329
323 323 325 326 327 328 328 329 329 330 330 330 331 332 332 332 332 332 332 332 333 331 335 331 333 334 334 334 333 331 332 331 332 332 330 330 331 329 329 330 329 326 324
320 321 323 325 326 327 327 328 328 328 328 328 330 330 331 332 331 332 332 332 333 332 331 331 335 334 334 332 332 332 332 332 332 331 330 330 330 330 330 330 328 326 326
319 320 321 323 325 324 325 326 326 326 327 328 328 330 331 331 331 331 331 332 332 333 333 329 329 331 330 332 331 332 332 331 331 331 330 330 329 329 329 329 328 327 324
316 318 319 320 321 322 323 323 323 324 324 324 325 327 328 329 331 330 330 330 329 331 332 331 329 328 329 330 331 332 332 332 332 331 330 329 329 329 328 328 327 328 328
312 314 314 314 316 317 318 318 318 319 321 321 322 322 324 323 324 325 327 329 330 330 330 330 329 329 328 329 330 329 330 331 330 330 330 330 330 328 325 324 324 325 324
309 308 308 309 309 309 311 312 314 315 316 317 318 318 319 320 321 322 323 324 325 325 327 330 330 329 329 330 330 329 329 329 329 329 329 329 328 327 326 327 327 326 324
309 308 307 307 307 307 306 305 306 306 307 309 311 313 315 316 317 317 318 319 320 320 319 320 321 324 328 330 330 329 329 328 328 328 329 329 328 328 328 328 328 325 324
309 307 307 307 306 306 306 305 304 303 302 301 301 302 303 305 307 311 313 315 315 316 316 316 317 318 316 323 326 327 327 327 327 326 327 326 326 326 326 326 327 325 326
Wind_Speed
35 33 29 32 28 20 33 60 52 42 37 37 30 28 24 24 24 22 21 21 24 26 27 29 30 30 33 34 34 32 33 35 40 42 37 37 37 36 32 34 40 40 37
19 12 14 13 6 20 30 19 25 33 36 37 26 33 27 24 25 25 25 26 27 30 28 27 30 29 30 30 32 32 33 34 36 40 38 36 37 35 32 34 36 37 37
14 8 8 12 19 28 27 21 22 29 30 27 23 28 28 32 31 32 30 30 30 34 32 30 30 28 29 30 30 29 29 31 32 35 35 34 34 30 30 32 33 32 34
21 20 19 22 26 29 22 37 29 27 25 21 21 31 35 36 36 33 32 31 33 32 31 28 28 26 23 23 24 26 26 27 28 29 29 31 30 31 32 36 34 35 36
19 18 19 20 22 21 16 20 25 32 29 29 32 48 43 39 39 36 33 33 35 34 31 30 26 24 21 26 29 28 27 27 26 26 28 31 31 32 38 38 36 37 36
19 19 19 21 20 20 18 14 15 21 18 25 32 36 47 39 39 37 34 35 37 35 33 32 25 24 21 25 27 26 24 24 24 24 25 28 31 34 35 33 32 30 31
24 24 24 25 26 24 23 23 21 22 24 26 27 29 33 34 36 35 34 39 38 38 34 32 26 24 22 23 22 20 17 16 18 20 20 20 22 29 30 30 35 34 36
20 21 23 25 26 26 24 25 27 26 26 28 30 31 34 36 34 35 36 37 37 33 32 32 25 22 20 19 17 14 11 11 10 12 13 13 8 16 21 31 30 35 31
25 22 22 22 25 26 26 31 30 28 29 29 30 32 35 34 31 30 29 30 30 30 25 25 26 21 20 18 18 14 12 10 9 11 10 7 4 4 18 25 27 27 27
26 27 29 27 28 27 31 34 32 31 29 29 31 31 32 33 32 27 26 26 26 23 21 23 22 22 21 20 20 17 13 12 11 9 5 5 7 7 4 7 14 20 26
28 28 25 28 27 29 31 33 32 31 30 30 31 32 32 30 28 26 23 22 23 24 22 22 23 24 21 23 24 22 15 13 11 8 7 6 9 11 11 11 13 20 25
30 24 22 26 27 30 28 31 30 28 28 30 31 29 27 25 21 20 19 21 21 24 23 20 21 23 22 21 23 23 19 16 12 10 11 10 10 18 18 16 19 24 21
25 26 25 25 26 29 30 31 30 25 27 28 26 26 26 22 18 17 18 17 19 22 23 19 20 22 20 22 19 19 17 20 17 17 13 12 11 13 18 19 21 22 20
25 25 26 24 27 28 29 29 27 27 26 26 24 23 21 16 9 9 10 15 17 17 19 16 21 22 23 20 19 19 19 19 22 20 16 13 12 12 18 20 22 21 21
25 25 26 26 25 27 26 27 27 27 23 22 21 20 19 15 7 9 11 11 11 13 13 15 23 26 27 23 20 20 20 21 24 26 20 16 15 14 16 21 22 23 23
25 23 23 23 23 26 26 29 27 25 23 21 15 15 17 16 15 15 11 8 9 10 16 19 21 24 32 28 26 22 23 23 25 24 22 18 17 17 17 19 20 24 25
21 22 25 26 25 26 28 28 33 34 21 17 11 21 14 12 12 11 13 9 8 12 20 18 21 22 27 30 30 25 22 22 21 25 24 23 20 19 18 18 19 20 25
23 24 24 23 21 21 21 23 26 30 32 11 13 16 4 8 7 9 12 12 8 10 15 16 16 18 24 27 27 25 23 22 27 25 23 25 24 22 21 19 18 20 23
23 25 23 21 19 19 19 20 21 24 24 24 19 17 15 13 7 7 10 12 10 8 15 16 17 18 17 20 22 21 20 21 23 27 25 25 28 27 25 22 21 23 24
21 21 22 20 19 19 20 21 21 20 20 22 20 20 17 12 11 10 7 10 11 10 7 9 14 16 18 17 16 18 21 23 25 27 28 26 27 29 29 27 23 24 25
21 20 20 19 18 18 17 18 20 21 22 23 20 20 13 11 10 12 10 7 9 10 10 7 9 14 16 17 17 17 19 21 24 28 29 29 28 29 31 31 30 27 26
23 22 21 20 20 20 19 18 18 19 19 20 21 20 20 15 7 7 6 5 7 10 14 12 9 8 9 13 16 17 20 22 23 26 29 29 29 29 29 32 34 36 33
25 23 23 24 24 23 23 23 23 22 20 19 21 21 23 22 21 20 15 9 9 9 9 12 14 12 10 12 14 15 15 18 18 21 25 29 29 28 28 28 30 30 31
25 26 25 25 25 25 26 26 25 25 24 24 25 25 24 23 24 22 21 20 20 15 12 11 16 18 21 17 15 13 14 18 21 19 21 22 23 27 30 30 29 30 31
20 23 26 24 25 26 26 27 26 26 26 26 26 25 24 23 23 23 23 21 20 20 17 11 5 12 20 25 22 20 19 14 19 24 26 26 25 25 28 33 35 34 32
15 18 21 23 23 24 25 26 27 27 27 26 25 25 25 25 25 24 23 22 21 21 20 19 16 14 10 8 12 14 16 18 18 18 22 25 27 29 31 30 31 34 33
Wind_Direction
278 263 268 263 246 253 273 257 290 261 269 262 262 267 260 264 271 276 282 282 282 283 286 286 282 280 277 273 268 264 261 259 259 265 259 258 259 257 246 244 249 250 249
313 297 269 258 297 323 312 269 224 222 244 251 259 264 261 261 267 276 284 285 286 285 282 284 285 284 277 274 269 262 262 261 260 263 263 259 254 255 249 250 246 242 241
341 346 310 258 290 312 298 258 257 261 259 266 274 271 273 274 275 283 282 287 293 288 287 287 287 281 277 270 267 265 262 260 260 260 262 262 257 249 245 238 235 239 237
323 319 317 312 301 304 276 251 261 259 257 244 254 267 270 273 278 279 283 283 295 289 288 289 286 278 277 278 266 260 256 255 256 256 256 253 251 242 236 226 233 239 240
343 340 338 343 336 339 313 288 273 274 273 257 277 251 277 275 272 276 283 282 285 289 287 292 284 269 269 272 268 264 260 258 258 255 252 250 248 241 231 234 238 245 244
332 328 325 329 332 336 328 319 284 291 285 274 274 267 272 269 267 281 281 281 279 287 285 290 280 268 269 267 268 264 257 249 250 249 248 248 252 250 248 245 236 234 216
327 324 323 319 318 317 315 313 310 304 299 289 284 277 276 274 272 274 275 278 279 283 279 281 275 264 262 265 260 254 248 244 238 238 243 247 276 256 249 245 240 231 220
328 324 323 318 314 313 313 314 308 305 297 290 286 284 280 275 273 272 274 276 277 279 278 276 267 255 251 247 242 236 238 225 225 239 243 246 286 259 242 240 235 217 204
329 318 318 320 319 314 314 317 311 301 294 291 292 289 283 281 278 272 271 275 274 276 272 273 261 245 233 223 225 226 214 215 219 207 205 213 229 293 241 222 197 194 163
318 316 309 311 309 310 311 311 307 302 296 293 292 288 289 286 279 273 270 273 278 266 270 262 252 238 221 218 217 223 210 210 204 195 182 196 176 154 177 187 198 180 170
315 312 310 312 309 310 312 309 308 302 299 298 298 298 295 290 285 266 261 259 275 268 267 262 239 228 221 221 217 220 203 198 196 200 203 192 179 161 170 172 172 168 152
315 310 319 315 314 317 316 316 315 305 304 304 306 306 307 300 284 269 255 253 264 260 261 260 234 222 221 221 218 207 201 202 195 204 209 200 184 168 168 161 164 163 153
316 316 320 320 318 319 322 320 316 312 310 310 309 309 314 307 287 265 248 247 254 254 253 246 227 215 210 198 192 195 202 210 214 214 214 219 208 176 174 169 170 178 176
329 328 326 322 320 321 324 326 317 312 311 307 303 307 309 312 282 274 250 254 253 243 244 224 207 208 206 203 204 206 206 214 209 207 217 220 214 193 190 188 184 181 185
333 329 327 326 327 329 332 337 334 328 312 307 297 301 298 296 286 259 270 261 258 250 216 205 197 203 203 208 211 214 217 220 216 209 211 215 212 203 200 198 200 196 197
335 336 338 341 344 346 340 340 340 330 323 314 300 293 291 288 260 263 270 252 230 234 220 205 206 205 200 211 216 217 218 220 218 214 208 212 210 201 197 198 202 204 204
348 339 338 339 337 345 347 349 342 335 332 334 320 300 287 275 267 250 241 223 219 206 209 216 218 213 211 214 219 223 227 230 228 214 211 207 203 202 198 196 196 199 197
344 344 348 352 354 351 1 359 3 3 0 350 0 12 338 337 270 239 231 208 211 199 213 217 226 226 231 224 223 230 239 225 214 211 209 207 203 200 199 200 202 203 206
351 356 358 359 0 1 4 355 2 7 10 8 15 12 6 8 337 259 230 229 219 221 216 221 226 229 231 232 234 232 233 218 212 211 213 212 210 209 207 211 220 213 214
2 4 2 359 355 0 3 1 6 9 10 11 3 357 357 5 11 2 295 250 240 236 256 233 231 239 238 234 238 236 226 223 219 218 219 218 216 216 219 218 217 220 230
8 11 8 4 7 7 8 12 12 15 22 21 15 7 348 355 7 355 353 319 263 256 264 266 241 237 243 241 247 241 232 226 225 223 222 222 222 223 226 228 230 229 224
18 22 19 17 18 22 21 19 21 23 23 16 17 17 15 3 359 3 354 7 331 295 275 261 258 259 245 235 234 238 235 237 233 223 221 223 226 229 230 232 231 232 235
25 26 27 29 30 32 32 33 30 26 27 28 26 28 32 35 36 38 19 1 317 287 268 247 247 255 248 239 238 245 247 243 243 230 229 229 228 222 224 228 233 234 234
25 26 26 29 30 32 34 37 39 38 38 41 40 37 37 34 35 32 32 30 22 4 312 267 247 242 238 240 242 244 249 240 237 238 233 233 227 224 228 233 234 235 235
25 25 26 26 27 29 31 34 35 35 36 37 39 40 37 36 37 39 35 28 26 27 28 6 300 220 221 230 235 244 245 250 238 235 239 235 239 241 244 241 240 240 241
19 23 25 24 24 24 25 27 29 31 32 32 32 33 34 35 36 33 35 33 30 30 30 31 36 25 30 143 194 208 235 240 231 231 235 236 240 244 246 246 242 242 244